Weather in Ptolemaida

Greece     40°30′38″N   21°40′53″E
temp.,
°C
wind,
m/s
gust,
m/s
humid.,
%
clouds,
%
prec.,
mm/h
press.,
hPa
HPBL,
m
22 january, sat
sat2223:00−5n348394 1.7 1022235
02:00−7n359190 1.7 1023172
05:00−8nnw3582100 0.0 1022198
08:00−8nnw34826 0.0 1023189
11:00−5nnw45601 0.0 1023502
14:00−3nnw45440 0.0 1020659
17:00−4n235812 0.0 102099
20:00−6nnw227063 0.0 102151
23 january, sun
sun2323:00−6n237420 0.0 102370
02:00−6nnw37761 0.0 1024289
05:00−6nnw610682 0.0 1026445
08:00−7nnw48691 0.0 1027289
11:00−4nnw56481 0.0 1027820
14:00−2nnw35360 0.0 1025822
17:00−4n23530 0.0 102386
20:00−6n22670 0.0 102546
24 january, mon
mon2423:00−7n22711 0.0 102440
02:00−7n347319 0.0 102486
05:00−9nnw388715 0.0 1026313
08:00−9nnw357720 0.0 1027153
11:00−6n466594 0.1 1027980
14:00−5nne4657100 0.2 10261415
17:00−5nne5755100 0.1 10271121
20:00−7nnw477471 0.1 1030488
25 january, tue
tue2523:00−9nnw467856 0.0 1032347
02:00−10nnw358420 0.0 1033258
05:00−11nnw358618 0.0 1033221
08:00−11nnw238630 0.0 1034130
11:00−8nnw345456 0.0 1032398
14:00−5nnw56401 0.0 1030796
17:00−6nnw35450 0.0 1029463
20:00−8nnw23620 0.0 103192
26 january, wed
wed2623:00−9n23630 0.0 103169
02:00−9nnw23595 0.0 103046
05:00−10nnw235577 0.0 102956
08:00−8nnw2354100 0.0 102889
11:00−4nnw3444100 0.0 1027195
14:00−1nnw455124 0.0 1025478
17:00−2nnw34621 0.0 1025150
20:00−5n22721 0.0 102843